Flag for Japan

Past Weather in Kyoto, Japan — Yesterday and Last 2 Weeks

Now
65 °F

Mild.


Feels Like: 65 °F
Forecast: 83 / 57 °F
Wind: 5 mph from North

Location: Osaka
Current Time: Oct 2, 2020 at 5:29:59 am
Latest Report: Oct 2, 2020 at 4:00 am
Visibility: N/A
Pressure29.98 "Hg
Humidity: 83%
Dew Point: 60 °F
Location of KyotoLocation

Past Weather in Kyoto — Graph

°F

Kyoto Temperature Yesterday

Maximum temperature yesterday: 79 °F (at 3:00 pm)
Minimum temperature yesterday: 64 °F (at 5:00 am)
Average temperature yesterday: 71 °F

High & Low Weather Summary for the Past Weeks

 TemperatureHumidityPressure
High87 °F (Sep 18, 2:00 pm)98% (Sep 25, 8:00 am)30.02 "Hg (Sep 25, 8:00 am)
Low64 °F (Sep 28, 6:00 am)36% (Sep 21, 1:00 pm)29.60 "Hg (Sep 25, 3:00 pm)
Average75 °F67%29.86 "Hg
* Reported Sep 17 4:00 am — Oct 2 4:00 am, Kyoto. Weather by CustomWeather, © 2020

Note: Actual official high and low records may vary slightly from our data, if they occured in-between our weather recording intervals... More about our weather records

Kyoto Weather History for the Previous 24 Hours

Scroll right to see more
 ConditionsComfort  
Time TempWeatherWind HumidityBarometerVisibility
4:00 am
Fri, Oct 2
65 °FMild.5 mph83%29.98 "HgN/A
3:00 am65 °FClear.3 mph81%29.96 "Hg25 mi
2:00 am66 °FMild.3 mph78%29.97 "HgN/A
1:00 am66 °FMild.5 mph75%29.97 "HgN/A
12:00 am67 °FMild.1 mph74%29.97 "HgN/A
11:00 pm
Thu, Oct 1
69 °FMild.6 mph71%29.95 "HgN/A
10:00 pm69 °FMild.5 mph69%29.96 "HgN/A
9:00 pm71 °FPassing clouds.5 mph63%29.95 "Hg25 mi
8:00 pm71 °FMild.5 mph61%29.94 "HgN/A
7:00 pm73 °FMild.7 mph57%29.92 "HgN/A
6:00 pm75 °FPassing clouds.8 mph51%29.89 "Hg31 mi
4:00 pm79 °FWarm.9 mph41%29.85 "HgN/A
3:00 pm79 °FPassing clouds.9 mph42%29.85 "Hg31 mi
1:00 pm79 °FPleasantly warm.6 mph39%29.85 "HgN/A
12:00 pm78 °FScattered clouds.6 mph43%29.86 "Hg31 mi
11:00 am77 °FWarm.7 mph56%29.87 "HgN/A
10:00 am74 °FMild.10 mph60%29.87 "HgN/A
9:00 am73 °FScattered clouds.5 mph64%29.88 "Hg25 mi
8:00 am69 °FMild.3 mph78%29.86 "HgN/A
7:00 am66 °FMild.5 mph86%29.85 "HgN/A
6:00 am65 °FPassing clouds.3 mph88%29.83 "Hg25 mi
5:00 am64 °FMild.2 mph91%29.81 "HgN/A
Weather by CustomWeather, © 2020

See weather overview